User: anonymous   Login
Location: Newark
(25.4297°S, 49.2719°W)
Time: 04:07:12
(UTC+00:00)
Language:

Explorer 11/Cluster Stage 4 - Orbit

View from above orbital plane
View from above orbital plane
View from above satellite
View from above satellite

Ground track
Ground track

The orbit data is extracted from the following two-line orbital elements,

1   107U 61013A   19316.44768124  .00000596  00000-0  57865-4 0  9990
2   107  28.7923 332.5911 0546985 264.9207  88.8738 14.08849572935009
Epoch (UTC): 12 November 2019 10:44:39
Eccentricity: 0.0546985
inclination: 28.7923°
perigee height: 467 km
apogee height: 1259 km
right ascension of ascending node: 332.5911°
argument of perigee: 264.9207°
revolutions per day: 14.08849572
mean anomaly at epoch: 88.8738°
orbit number at epoch: 93500

The dashed part of the orbit path shows where the satellite is in the earth's shadow,  

DLR